AirNav   Air Wisconsin Up To $57,000 Bonus
 
 752 users online  

0MO4 Bert Walter Berkowitz Heliport
Kansas City, Missouri, USA

GOING TO KANSAS CITY?


FAA INFORMATION EFFECTIVE 31 DECEMBER 2020

Location

FAA Identifier: 0MO4
Lat/Long: 39-05-01.1600N 094-34-36.9100W
39-05.019333N 094-34.615167W
39.0836556,-94.5769194
(estimated)
Elevation: 890 ft. / 271 m (estimated)
Variation: 05E (1985)
Time zone: UTC -6 (UTC -5 during Daylight Saving Time)
Zip code: 64108

Heliport Operations

Heliport use: Private use. Permission required prior to landing
Activation date: 06/1991
Control tower: no
ARTCC: KANSAS CITY CENTER
FSS: COLUMBIA FLIGHT SERVICE STATION
Attendance: CONTINUOUS
Wind indicator: yes
Segmented circle: no
Lights: FOR FLOOD LGTS CALL 816-556-3133.

Heliport Communications

WX ASOS at MKC (2.5 nm N): PHONE 816-329-2843
WX ASOS at LXT (12 nm SE): 124.175 (816-347-9807)
WX ASOS at MCI (14 nm NW): PHONE 816-329-2808
WX ASOS at OJC (16 nm SW): 119.35 (913-780-6969)
WX AWOS-3 at GPH (19 nm NE): 120.275 (816-407-3399)

Nearby radio navigation aids

VOR radial/distance  VOR name  Freq  Var
MCIr143/14.2KANSAS CITY VORTAC113.2505E
ANXr261/20.9NAPOLEON VORTAC114.0007E

Heliport Services

Runway Information

Helipad H1

Dimensions: 18 x 18 ft. / 5 x 5 m
Surface: concrete
Runway edge lights: FLD
Latitude: 39-05.019333N
Longitude: 094-34.615167W
Elevation: 890.0 ft.
Traffic pattern: leftleft

Heliport Ownership and Management from official FAA records

Ownership: Publicly-owned
Owner: TRUMAN MEDICAL CENTER, INC.
2301 HOLMES
KANSAS CITY, MO 64108
Phone 816-556-3133
Manager: JACK L NICHOLS
2301 HOLMES
KANSAS CITY, MO 64108
Phone 816-556-3133

Additional Remarks

OWNER DESIRES HELIPAD NOT BE CHARTED.
FOR CD CTC KANSAS CITY APCH AT 816-329-2710.

Instrument Procedures

There are no published instrument procedures at 0MO4.

Some nearby airports with instrument procedures:

KMKC - Charles B Wheeler Downtown Airport (2 nm N)
KLXT - Lee's Summit Municipal Airport (12 nm SE)
KMCI - Kansas City International Airport (14 nm NW)
KOJC - Johnson County Exec Airport (16 nm SW)
3GV - East Kansas City Airport (17 nm E)
KGPH - Midwest NTL Air Center Airport (19 nm NE)
 
Loc | Ops | Rwys | IFR | FBO | Links
Com | Nav | Svcs | Stats | Notes
Area around 0MO4 (Bert Walter Berkowitz Heliport)
 
Road maps at: MapQuest Bing Google
 
Aerial photo
No photo
 
Sectional chart

 
Airport distance calculator
Flying to Bert Walter Berkowitz Heliport? Find the distance to fly.

From to 0MO4

Sunrise and sunset
Times for 21-Jan-2021
 Local
(UTC-6)
 Zulu
(UTC)
Morning civil twilight07:0513:05
Sunrise07:3413:34
Sunset17:2523:25
Evening civil twilight17:5423:54

Current date and time
Zulu (UTC)  22-Jan-2021 04:15:16
Local (UTC-6)  21-Jan-2021 22:15:16
 
METAR
KMKC 
2nm NW 
220354Z 03005KT 10SM CLR 05/M06 A3006 RMK AO2 SLP183 T00501056
KLXT 
12nm SE 
220353Z AUTO 01012KT 10SM CLR 04/M05 A3005 RMK AO2 SLP180 T00391050
KMCI 
15nm NW 
220353Z 01013KT 10SM BKN150 03/M05 A3005 RMK AO2 SLP180 T00331050
KOJC 
16nm SW 
220353Z AUTO 01008KT 10SM CLR 05/M06 A3003 RMK AO2 SLP175 T00501056
KGPH 
19nm NE 
220355Z AUTO 01009KT 10SM CLR 03/M05 A3005 RMK AO2
TAF
KMKC 
2nm NW 
211720Z 2118/2218 25008KT P6SM SCT150 FM212300 VRB05KT P6SM SCT100 FM221500 01008KT P6SM SCT060
KMCI 
15nm NW 
211720Z 2118/2218 25008KT P6SM SCT150 FM212300 VRB05KT P6SM SCT100 FM221500 01008KT P6SM SCT060
NOTAMs
Click for the latest NOTAMs
NOTAMs are issued by the DoD/FAA and will open in a separate window not controlled by AirNav.

 

 
 

Would you like to see your business listed on this page?

 If your business provides an interesting product or service to pilots, flight crews, aircraft, or users of the Bert Walter Berkowitz Heliport, you should consider listing it here.  To start the listing process, click on the button below
 
Add a business
 

Other Pages about Bert Walter Berkowitz Heliport

Update a link
 
Copyright © AirNav, LLC. All rights reserved. Privacy Policy  Contact